GFSFLT2_850_thetae_000.txt.gz
Theta_e
288 288 288 287 286 287 287 286 286 286 287 287 288 289 290 290 289 289 290 291 292 293 293 294 295 295 296
288 287 286 287 287 287 285 284 284 284 285 287 287 287 287 288 288 289 290 290 291 291 292 293 294 295 296
286 286 287 287 286 285 284 283 283 283 284 285 286 286 287 288 289 288 288 288 289 290 291 291 292 293 294
287 286 288 286 284 283 283 282 283 284 284 284 285 285 286 285 286 286 287 287 288 289 290 291 292 292 294
286 286 285 284 283 283 282 283 284 284 283 283 283 283 283 283 284 285 286 287 288 290 290 290 291 292 293
286 284 283 283 282 283 284 284 282 282 282 282 283 282 283 283 283 285 286 287 288 288 288 290 291 291 292
283 283 283 283 284 282 282 282 282 282 282 282 282 282 282 282 283 284 285 286 287 287 288 288 289 290 291
282 283 283 282 282 282 282 282 282 281 281 282 281 281 282 282 283 284 285 286 287 287 288 289 289 290 291
282 282 281 281 282 282 281 281 280 280 281 281 281 281 282 282 283 284 285 286 286 287 287 287 288 289 289
281 281 281 281 281 280 280 280 280 280 281 281 281 282 283 283 283 283 283 283 285 286 286 287 287 288 288
280 280 280 280 281 281 281 280 280 281 282 282 282 282 282 283 283 282 282 284 284 287 289 289 288 288 288
280 280 280 281 281 281 281 281 282 282 282 282 282 282 282 283 282 283 284 285 287 289 289 290 291 290 289
280 280 281 281 281 281 281 282 282 282 282 282 282 282 282 282 282 283 284 288 290 289 291 292 292 294 294
279 281 281 281 281 281 281 282 282 282 283 283 283 283 283 284 284 285 287 285 290 291 292 293 294 296 297
280 281 281 281 282 282 282 282 282 283 283 283 284 284 285 285 286 286 288 290 291 292 292 292 294 297 298
281 281 281 282 282 282 282 282 282 283 283 283 284 285 286 287 287 287 289 291 292 292 292 291 292 296 299
282 282 282 283 282 282 282 282 283 283 284 284 284 284 285 285 288 289 291 292 293 293 292 292 291 291 295

GFSFLT2_850_thetae_003.txt.gz
Theta_e
287 287 286 286 286 286 286 287 286 286 286 286 286 287 288 289 290 290 291 291 291 292 292 293 294 295 296
286 285 285 287 285 285 287 285 283 283 284 285 286 287 288 288 288 289 289 290 290 291 291 292 293 294 294
285 286 287 285 285 286 284 283 282 283 283 284 285 286 286 287 287 288 289 289 289 289 290 291 291 292 293
286 286 285 285 284 283 283 283 283 282 283 284 283 284 284 285 285 286 286 286 287 288 289 289 290 291 291
286 286 284 283 283 282 283 283 283 282 282 282 282 282 282 283 283 284 284 285 286 287 288 289 290 291 291
285 283 282 282 282 283 283 282 282 282 282 282 282 282 281 282 283 284 285 285 286 287 287 288 289 290 290
282 282 282 283 283 282 282 282 282 282 281 281 281 281 282 282 282 283 284 285 286 287 287 288 289 289 290
282 283 283 282 282 282 282 282 281 281 281 281 281 281 282 282 283 283 284 285 286 287 287 288 289 289 289
282 282 281 281 281 282 281 280 280 280 280 280 281 281 281 282 282 283 284 285 285 285 286 287 287 288 288
281 281 281 281 281 281 281 280 280 280 280 280 281 281 282 282 282 282 283 283 283 284 285 286 287 287 287
280 281 281 281 282 282 281 280 280 280 281 281 281 282 281 282 282 282 283 284 285 287 288 288 289 288 287
280 280 281 282 282 282 282 282 281 281 282 282 282 282 282 282 282 284 285 287 287 289 289 289 289 289 288
279 281 281 282 282 282 282 282 282 283 283 283 283 283 283 283 283 285 285 288 289 289 290 291 291 291 291
280 281 282 282 282 282 282 282 282 283 283 283 283 284 284 286 286 287 288 285 290 291 291 291 292 292 293
281 282 282 282 282 282 282 282 282 282 283 284 285 285 287 288 287 288 289 290 292 292 291 291 291 293 296
282 282 282 282 283 283 283 283 282 283 283 284 285 287 289 289 288 288 290 291 292 292 292 292 291 293 297
283 283 282 283 283 284 283 283 283 283 284 285 286 286 286 286 290 290 290 291 293 293 292 292 291 292 297

GFSFLT2_850_thetae_006.txt.gz
Theta_e
285 285 285 284 286 285 285 285 285 286 286 285 286 286 286 287 288 289 290 290 291 291 292 293 294 294 295
285 284 284 286 285 285 285 284 284 283 284 284 285 285 286 287 287 288 288 289 289 290 291 292 292 293 293
284 285 285 286 285 284 283 282 282 282 283 283 284 284 285 286 286 287 287 288 288 288 289 289 290 291 292
285 285 286 285 283 283 282 282 282 282 282 282 283 283 283 284 284 284 285 285 285 286 287 288 288 289 290
285 284 284 283 282 282 282 282 282 282 282 282 282 282 282 282 282 282 283 284 285 286 286 287 288 288 289
283 283 282 282 282 283 283 282 282 282 282 282 282 281 281 281 282 282 284 285 285 286 286 287 288 288 289
281 282 282 283 283 282 282 281 281 281 281 281 281 281 281 282 282 282 283 284 285 285 286 286 287 288 288
282 282 283 282 282 282 281 282 281 281 280 280 281 281 281 281 282 282 283 284 285 285 286 287 287 288 288
282 281 281 281 281 282 281 280 280 281 281 280 280 280 281 281 282 282 283 284 284 285 286 286 286 287 288
281 282 282 282 282 281 281 280 280 280 282 280 281 281 281 281 282 283 283 284 284 285 285 286 286 287 286
281 282 282 282 283 283 282 281 280 280 283 281 281 282 281 281 283 284 285 286 287 288 289 289 289 287 286
280 281 282 283 283 283 283 283 282 282 283 283 282 282 282 282 282 286 287 288 288 290 289 290 290 290 289
280 282 282 283 283 283 283 283 283 283 284 283 283 283 283 284 284 287 287 288 290 290 291 291 291 291 290
281 282 283 283 283 283 283 283 283 284 285 284 285 285 286 288 288 289 288 286 291 292 292 291 291 291 291
282 283 284 283 284 283 283 283 282 283 285 286 286 287 289 290 289 289 289 290 291 291 292 291 291 292 291
283 283 283 283 283 284 283 283 283 283 284 285 286 288 289 291 290 289 289 290 291 290 291 291 291 293 294
283 284 283 283 284 284 284 283 284 283 284 285 286 286 285 286 290 291 290 289 289 290 290 290 290 293 298

GFSFLT2_850_thetae_009.txt.gz
Theta_e
285 285 285 285 285 285 286 285 285 285 286 286 286 286 286 287 287 288 288 289 289 290 291 292 293 294 295
285 285 285 286 286 285 285 285 284 284 284 284 285 286 286 286 286 287 287 288 288 289 289 290 291 292 293
285 286 285 285 285 284 283 283 282 283 283 283 284 284 285 285 286 286 286 286 287 287 287 288 289 290 291
286 285 284 284 283 282 282 282 283 283 283 283 284 284 284 284 284 284 285 285 285 286 286 287 287 288 289
285 284 283 282 282 282 282 283 283 282 282 283 283 282 282 283 283 283 283 284 284 285 286 287 287 287 288
283 283 282 282 282 283 282 282 282 283 283 282 282 282 282 282 282 283 283 284 285 285 286 286 286 287 288
282 282 282 282 282 282 282 282 282 282 282 281 282 282 282 282 282 282 283 284 284 285 285 286 286 287 287
282 282 283 282 282 282 282 282 282 282 282 281 282 281 281 282 283 283 283 284 285 285 286 286 287 287 287
282 282 281 282 282 281 282 281 281 281 282 281 282 281 282 283 283 283 283 284 285 285 285 286 287 287 287
281 282 282 283 283 282 282 280 279 280 282 281 281 282 282 283 284 285 286 287 286 285 285 286 286 287 287
282 282 283 283 283 283 283 281 280 280 283 281 281 282 281 282 285 287 287 288 288 289 290 290 289 289 287
280 281 282 284 284 284 284 284 283 283 284 283 282 282 283 283 283 289 290 290 290 290 289 290 291 291 290
280 282 283 284 284 284 285 284 284 284 284 284 284 285 284 284 284 289 289 290 290 290 289 290 290 291 291
281 283 284 284 284 284 284 284 284 285 285 285 285 285 286 288 288 290 290 287 289 289 289 290 290 290 291
283 283 284 284 284 284 284 284 283 284 285 286 286 287 288 288 289 290 289 289 289 289 289 290 290 291 291
284 284 284 283 283 284 284 284 284 284 284 285 286 287 288 289 289 289 289 289 290 289 289 290 290 293 296
284 285 284 283 283 284 284 285 285 284 284 285 286 286 285 286 289 290 289 290 290 289 289 290 290 294 294

GFSFLT2_850_thetae_012.txt.gz
Theta_e
287 287 287 287 287 287 287 286 286 286 286 286 286 287 287 288 288 288 288 289 289 289 290 290 291 292 293
287 286 287 287 287 287 286 285 285 285 285 285 286 286 286 287 287 287 288 288 288 288 289 290 290 291 292
286 286 287 287 286 285 285 284 285 285 285 285 285 286 286 287 287 287 287 287 287 287 288 288 288 289 290
286 287 287 286 285 284 284 284 284 285 284 285 285 285 286 286 286 286 286 286 286 286 287 287 287 288 288
288 286 285 285 284 284 284 284 284 284 284 284 285 284 284 285 285 285 285 285 285 286 286 286 287 287 288
285 285 284 284 284 284 284 283 283 284 284 284 284 284 284 284 284 285 285 285 285 286 286 286 286 287 288
284 284 283 284 283 284 283 283 283 283 284 283 284 284 284 284 284 285 285 285 285 286 285 286 286 287 287
283 283 283 283 283 283 282 282 283 283 283 283 283 283 284 284 285 286 285 286 286 286 286 287 287 287 287
283 284 283 283 282 282 282 282 282 282 283 283 284 283 283 285 286 286 286 286 288 288 287 286 286 287 288
283 282 282 282 282 282 282 282 281 281 283 282 282 282 283 284 286 288 289 290 289 290 290 289 288 287 287
281 282 282 283 283 283 283 282 281 281 285 282 281 282 282 283 286 289 289 290 290 290 291 290 289 289 288
281 282 282 283 284 285 285 284 284 283 285 284 282 282 282 283 283 289 289 290 289 290 290 290 289 289 289
280 281 282 284 285 284 284 284 285 285 285 284 284 284 283 283 284 286 287 290 290 290 289 289 289 289 289
280 280 282 283 284 283 283 284 284 286 286 285 284 284 284 285 285 286 289 288 289 290 289 289 289 290 290
282 283 283 282 284 284 284 284 283 284 285 285 285 285 286 286 287 288 288 289 290 289 289 289 290 290 291
284 283 283 283 283 284 284 284 284 284 283 284 285 285 286 287 288 288 288 288 290 289 289 289 290 292 293
284 284 283 283 283 284 285 285 285 285 284 284 285 285 286 286 287 288 287 289 289 289 289 289 290 292 292

GFSFLT2_850_thetae_015.txt.gz
Theta_e
288 288 288 287 287 287 288 287 287 287 287 287 287 288 288 288 289 289 289 290 290 290 291 291 292 292 293
288 287 288 287 287 288 287 286 285 285 286 287 287 288 288 288 288 289 289 289 289 290 290 290 290 291 291
287 287 286 287 288 287 286 286 285 285 285 286 286 286 287 288 288 288 288 288 288 289 288 288 289 290 290
286 286 287 287 286 286 285 284 285 284 285 285 286 286 286 287 287 287 287 287 287 288 288 288 287 288 289
286 287 286 285 285 284 284 284 284 285 284 284 285 284 285 285 285 286 286 287 287 287 287 287 288 288 288
287 286 285 285 284 284 283 284 285 284 284 284 284 284 284 284 285 286 286 287 287 287 288 287 288 288 288
285 285 284 283 283 284 284 284 283 283 283 284 284 284 284 284 285 286 286 287 287 288 288 288 288 288 288
284 284 283 284 285 285 283 283 283 283 283 283 284 284 284 284 286 287 287 287 288 288 288 288 289 289 288
283 284 284 284 284 283 283 283 283 283 283 282 283 283 283 286 286 286 287 287 289 290 289 289 289 290 290
283 282 282 282 283 283 283 283 283 282 284 283 282 282 282 283 285 287 288 289 289 289 290 289 290 290 290
282 282 282 282 283 283 284 283 282 282 285 282 282 282 281 282 285 286 287 289 289 290 290 291 290 290 289
281 281 281 282 284 284 284 284 283 282 285 284 282 282 282 282 283 286 288 288 288 289 289 290 289 289 290
281 281 282 284 284 284 284 283 284 285 285 285 283 282 283 283 283 285 285 288 289 289 288 289 290 289 289
281 282 283 284 284 283 283 284 282 286 286 285 284 283 284 284 285 285 286 286 287 288 288 289 290 289 290
282 283 284 283 284 284 284 283 281 283 285 286 285 284 284 285 285 286 287 287 287 287 288 288 289 289 290
284 284 283 283 284 285 284 284 282 283 283 284 283 284 285 285 286 287 287 287 287 288 288 288 289 290 291
284 284 284 284 284 285 284 284 285 285 285 284 284 284 285 286 286 286 286 287 287 287 288 288 289 290 290

GFSFLT2_850_thetae_021.txt.gz
Theta_e
287 286 286 286 285 285 285 286 286 285 286 287 288 288 288 289 289 289 290 290 291 291 292 292 293 293 294
286 286 285 285 285 285 286 285 284 284 285 286 286 287 287 287 288 289 289 290 290 290 291 291 292 292 292
286 286 285 285 286 286 284 284 284 284 284 285 285 286 286 287 287 287 288 288 288 288 289 289 290 290 291
286 286 285 285 285 284 284 284 284 284 284 285 285 285 285 285 285 286 286 286 287 288 288 289 289 290 290
285 285 285 284 284 284 283 283 284 285 284 284 284 285 285 286 286 286 286 286 287 288 288 289 289 290 290
285 285 284 283 283 283 283 284 284 284 284 283 284 285 285 285 285 285 285 285 286 287 288 288 289 290 290
284 283 283 283 283 284 284 284 283 283 283 283 284 285 285 285 285 286 286 286 286 287 288 289 290 290 290
283 283 283 284 284 284 283 283 283 284 284 282 284 284 284 284 285 286 286 286 286 286 287 287 287 288 289
283 283 283 283 283 283 283 282 283 283 285 283 284 283 283 285 285 285 285 285 285 286 285 286 286 287 289
283 283 283 284 284 284 283 282 282 281 285 282 282 282 282 283 283 285 286 286 286 286 286 286 286 286 287
283 284 284 285 285 285 284 283 283 282 285 282 281 282 281 282 283 284 285 286 285 286 286 287 287 287 287
283 284 284 285 285 285 285 285 285 285 286 284 282 282 282 282 282 284 285 285 285 286 286 287 287 287 287
283 284 284 285 285 285 285 286 286 286 286 286 284 284 283 282 283 283 284 285 286 286 286 286 286 287 287
283 284 285 285 285 285 285 285 285 286 287 286 285 284 284 284 284 284 285 283 285 286 286 286 287 287 286
284 284 285 285 285 285 285 285 283 285 286 287 286 286 285 285 284 286 285 285 286 286 286 285 287 287 287
284 284 284 285 285 285 285 285 284 285 285 286 286 285 285 285 284 285 285 286 286 287 287 285 286 287 287
284 285 285 285 284 285 285 284 285 285 286 286 285 285 284 284 285 286 286 286 287 287 287 287 287 287 289

GFSFLT2_850_thetae_024.txt.gz
Theta_e
287 287 287 286 286 285 285 286 285 285 286 286 287 288 288 288 289 289 290 290 291 291 292 292 293 294 294
287 287 286 286 285 285 285 284 284 285 285 286 286 286 287 287 288 289 289 289 289 290 290 291 291 292 293
287 286 286 285 285 284 283 283 284 284 285 285 285 286 286 287 287 287 287 287 287 288 288 289 290 290 291
286 286 285 285 284 283 283 283 284 285 285 285 286 285 285 285 285 286 286 286 286 287 288 288 289 290 290
286 286 285 284 284 283 283 284 284 285 285 284 285 284 285 285 286 286 286 285 286 287 288 288 288 289 289
286 285 284 284 283 283 284 284 284 284 284 284 285 285 286 286 286 286 286 285 286 287 287 288 288 288 289
285 284 284 283 284 284 284 283 283 284 284 284 285 285 286 286 286 286 286 286 285 286 287 287 288 288 289
284 283 283 284 284 284 283 283 283 284 285 283 285 285 285 285 286 286 286 286 286 286 286 287 287 287 288
283 283 284 284 283 283 284 283 283 284 284 283 285 284 284 285 286 285 286 285 285 285 285 285 286 287 287
283 284 284 284 284 284 284 283 283 282 283 283 283 282 282 282 284 285 286 286 286 286 285 285 285 286 286
283 284 284 285 285 285 285 284 284 283 285 283 282 282 280 282 283 285 285 285 285 285 286 286 285 285 286
283 284 284 285 285 285 285 285 285 285 286 285 283 283 283 282 282 285 285 285 285 286 286 286 286 286 285
283 284 284 285 285 285 285 285 286 286 286 286 284 284 283 283 283 284 285 286 286 286 286 286 286 286 286
284 284 285 285 285 285 285 285 285 286 286 286 285 284 284 284 284 284 286 283 286 286 286 286 287 287 287
284 284 285 285 285 285 285 285 284 285 286 286 286 286 285 285 285 286 286 285 286 286 286 286 287 287 287
285 285 285 285 285 285 284 284 284 285 285 285 285 285 286 285 284 285 285 285 286 286 285 285 285 287 287
285 285 285 284 284 284 284 284 285 285 285 285 285 284 283 283 285 285 286 286 287 286 286 286 285 287 288

GFSFLT2_850_thetae_027.txt.gz
Theta_e
288 287 287 287 286 286 286 285 285 285 285 285 287 287 288 288 289 289 290 290 290 291 292 292 293 294 294
287 287 287 286 286 285 285 285 284 285 285 285 286 286 287 287 288 289 289 289 290 290 290 291 291 292 292
287 286 286 286 285 285 284 284 284 285 286 286 286 286 286 287 287 287 287 287 288 287 288 288 289 290 291
286 286 286 285 285 284 283 284 285 286 286 285 285 285 285 285 286 285 285 285 286 286 287 288 289 289 290
286 286 285 285 284 283 283 284 284 285 285 285 285 286 286 286 286 287 287 286 286 286 287 288 289 288 289
286 286 285 284 284 283 284 284 283 284 284 285 285 286 287 286 286 286 286 286 286 287 287 288 288 288 288
285 285 284 283 284 284 284 284 283 284 284 285 285 286 286 286 286 286 286 286 286 286 287 287 288 288 288
284 283 283 284 284 284 283 283 283 284 285 285 286 286 286 286 286 287 286 286 286 286 286 287 287 287 287
283 283 283 283 283 283 284 283 284 285 285 284 285 284 285 286 285 286 286 286 286 285 285 285 286 286 287
283 283 283 284 284 284 284 283 283 283 283 283 283 282 282 283 284 285 286 286 286 286 285 285 285 285 285
282 284 284 285 285 285 285 284 284 284 285 282 283 283 280 282 284 286 286 286 286 286 286 286 286 284 284
283 284 284 285 285 285 285 285 285 284 286 285 283 284 283 282 282 285 286 286 286 286 286 286 286 285 284
284 284 285 285 285 285 285 285 285 286 286 286 285 284 283 282 282 284 285 286 287 286 285 285 285 286 286
284 284 285 285 285 285 285 285 285 286 286 285 285 284 284 284 284 284 286 284 286 286 285 286 287 287 287
284 285 285 285 285 285 285 285 284 285 286 286 285 285 285 284 284 286 286 285 286 286 286 286 287 287 287
284 285 285 285 285 285 285 285 285 285 285 286 286 285 285 285 283 284 285 285 286 286 285 285 286 286 287
285 285 285 285 285 286 286 286 286 285 285 285 284 283 282 282 285 284 284 285 285 285 286 285 285 286 287

GFSFLT2_850_thetae_030.txt.gz
Theta_e
289 289 288 288 288 287 286 286 286 285 285 285 286 287 288 288 289 289 290 290 291 291 292 292 293 293 294
288 288 287 287 286 286 286 285 285 285 286 286 286 286 286 287 288 288 289 289 290 290 290 291 291 292 292
287 287 286 286 286 285 285 285 284 285 286 286 286 286 286 286 287 287 287 287 287 288 288 289 289 290 290
287 286 286 286 285 285 284 283 284 286 286 286 286 286 286 286 286 286 286 286 286 287 287 288 288 289 289
286 286 286 285 285 284 283 284 285 286 286 286 286 286 287 287 287 287 286 286 286 286 288 288 288 288 289
286 285 285 284 284 283 284 284 284 285 284 284 285 287 287 287 287 287 287 287 286 286 287 288 288 288 288
285 285 284 283 283 284 284 283 283 284 284 284 286 286 287 287 287 287 287 287 286 286 286 287 287 288 288
284 283 283 284 284 284 283 283 283 285 284 284 286 286 286 286 287 287 287 287 286 286 286 287 287 287 287
283 283 283 283 283 283 284 283 284 285 285 284 286 285 285 286 286 286 286 286 286 286 286 286 285 286 286
282 283 283 284 284 284 284 284 283 283 284 283 284 284 282 284 285 286 286 286 286 286 286 286 285 285 285
282 284 284 285 285 285 285 284 284 284 285 282 282 283 281 282 285 285 286 286 286 287 287 287 286 285 284
284 284 285 285 285 285 285 285 285 284 285 284 283 284 283 283 284 286 286 286 286 287 287 286 286 285 285
284 284 285 285 285 286 286 285 286 286 286 286 285 284 284 283 283 285 285 287 287 287 286 286 286 286 286
284 284 285 285 286 285 285 286 286 287 287 286 286 284 284 285 284 285 287 283 286 286 285 286 286 286 287
284 284 285 285 285 285 286 286 286 286 287 287 286 285 285 285 283 285 285 285 285 285 285 286 286 287 287
284 285 285 285 285 286 285 286 286 286 286 286 286 285 285 286 284 284 284 285 285 285 285 284 285 286 286
285 285 285 285 284 285 286 286 286 286 286 285 285 285 283 282 285 284 284 284 285 285 285 285 284 286 287

GFSFLT2_850_thetae_033.txt.gz
Theta_e
294 292 291 290 289 288 287 287 287 287 287 286 286 287 288 288 288 289 290 290 291 292 292 293 293 294 294
291 290 289 288 288 287 287 286 286 286 285 286 287 287 287 287 287 288 289 290 290 290 291 291 292 292 293
288 288 288 287 286 286 285 285 285 285 286 287 287 286 287 287 287 287 287 287 288 288 289 289 290 290 291
287 287 286 286 286 285 285 284 284 285 286 287 286 286 287 287 287 287 287 287 287 287 287 288 288 289 290
286 286 286 285 285 285 284 283 285 286 287 286 287 287 287 287 287 287 287 287 287 287 287 288 288 289 289
286 285 285 285 284 284 283 284 284 286 285 284 286 287 287 287 287 287 287 287 287 287 287 288 288 288 288
285 285 285 284 283 283 284 284 283 285 284 283 286 286 287 287 287 287 287 287 287 287 287 287 288 288 288
285 284 283 283 284 283 283 283 283 285 284 283 287 286 286 287 288 288 287 287 287 287 286 286 287 287 287
283 282 282 282 283 283 283 283 283 285 285 284 286 284 286 287 288 287 287 286 286 286 286 286 285 286 287
282 282 282 283 284 284 284 284 284 284 285 283 285 284 282 287 286 286 287 287 287 287 287 286 286 284 285
281 283 284 284 285 285 285 285 284 285 286 282 284 285 282 282 287 287 286 287 287 287 287 287 287 286 285
283 284 285 285 285 285 286 285 285 285 286 285 285 285 284 284 284 287 287 287 286 287 287 287 286 285 285
284 285 285 285 286 286 286 286 287 287 287 287 286 285 285 284 283 285 285 287 287 286 286 285 285 286 286
284 285 285 285 286 286 286 287 288 288 287 287 286 285 285 285 284 285 285 283 286 286 285 286 286 286 287
284 285 285 285 286 286 286 287 287 287 287 286 286 285 285 285 284 285 284 285 286 285 285 286 287 286 286
285 285 285 285 286 286 286 286 286 287 286 286 285 285 285 285 284 285 285 284 286 286 285 284 285 287 287
285 285 285 285 285 285 285 285 286 286 286 285 285 284 282 282 284 284 284 286 285 286 286 286 286 288 287

GFSFLT2_850_thetae_036.txt.gz
Theta_e
297 294 297 299 294 290 289 288 288 287 287 287 286 286 286 288 289 289 290 290 291 292 293 293 294 294 295
300 301 301 297 293 289 288 287 287 287 287 286 286 286 287 288 288 288 289 289 290 291 291 291 292 292 293
299 297 291 289 288 287 287 287 287 287 286 286 287 288 288 288 287 287 288 288 288 289 289 289 290 291 291
293 289 288 287 286 286 287 287 286 286 285 287 287 288 288 288 287 287 288 288 288 288 288 288 288 289 290
288 287 287 287 288 287 286 286 285 285 287 287 286 287 288 288 288 288 288 288 288 287 287 288 288 289 290
287 287 287 287 287 286 286 285 285 286 286 286 286 287 288 288 289 288 288 288 287 287 287 287 288 289 290
287 287 287 286 286 284 284 285 285 285 285 285 287 286 287 288 289 289 288 288 288 287 287 287 288 288 288
285 286 285 285 285 284 284 284 285 285 285 285 286 285 286 287 288 289 288 288 288 287 287 287 287 287 288
284 283 282 282 283 283 283 284 284 285 285 284 286 285 285 288 288 288 288 288 288 287 287 287 287 286 286
283 283 282 282 284 284 284 284 283 283 285 284 285 284 284 288 287 287 288 287 287 288 288 287 287 286 286
282 282 284 284 284 284 285 285 285 285 286 283 285 286 283 283 287 287 287 288 286 287 286 287 287 286 285
282 283 284 284 285 285 285 285 285 286 287 286 285 286 285 285 285 287 286 287 287 287 287 287 286 286 285
284 284 284 285 285 285 286 286 286 287 287 287 286 286 285 285 284 285 284 287 287 287 286 286 286 286 286
284 285 285 285 286 286 286 286 286 288 287 287 286 286 285 285 284 285 285 282 286 286 286 286 286 286 286
284 285 285 285 285 285 286 286 286 287 287 287 286 285 285 284 284 286 285 285 285 285 284 285 286 286 285
285 285 285 285 285 285 285 285 285 286 286 286 286 286 285 285 285 285 285 285 286 285 285 286 286 286 286
285 285 285 285 284 285 285 285 285 286 286 286 285 284 284 284 285 285 285 285 286 286 286 286 286 288 288

GFSFLT2_850_thetae_039.txt.gz
Theta_e
304 298 295 297 300 302 302 302 301 295 291 290 289 288 288 288 287 288 289 290 291 292 293 294 294 295 295
301 301 302 301 301 300 301 294 291 291 289 289 288 287 286 287 288 289 289 289 290 291 291 292 293 294 294
303 301 300 299 299 298 294 291 288 288 288 288 287 286 287 288 288 288 288 288 288 289 289 289 290 291 291
300 299 298 296 294 289 288 288 288 287 287 286 286 288 288 288 288 288 288 288 288 288 288 288 288 289 290
296 294 291 288 288 288 288 288 287 286 286 286 287 287 288 288 289 289 289 288 288 288 288 288 289 289 290
289 287 287 288 288 288 287 287 285 285 285 286 287 287 288 289 289 289 288 288 288 288 288 288 288 288 289
287 288 288 288 287 287 286 285 285 284 285 286 287 288 288 289 289 289 288 288 288 288 288 288 288 289 289
286 286 286 286 285 285 285 285 284 285 285 286 287 287 288 289 289 289 289 289 289 289 288 288 287 288 288
285 285 284 283 283 283 283 283 284 285 286 285 287 286 288 290 290 290 289 289 288 288 288 288 288 287 287
283 284 283 282 283 283 284 284 284 284 286 286 287 286 285 289 289 288 288 288 287 287 287 287 287 286 286
283 282 282 284 284 284 285 284 285 285 286 284 286 285 284 284 288 288 287 288 287 287 286 286 286 286 285
282 283 284 284 284 285 285 285 285 286 286 285 285 286 286 285 286 287 287 287 287 287 287 286 286 286 286
283 284 284 285 285 285 285 286 286 287 287 287 286 286 285 285 285 286 286 287 287 287 287 286 286 286 285
284 284 285 285 286 285 285 286 286 287 287 286 286 285 285 284 283 285 287 283 286 286 286 286 287 287 286
284 285 285 285 285 285 285 285 285 286 287 286 286 285 285 284 284 286 286 286 285 285 284 285 285 286 286
285 285 285 285 285 285 285 285 285 285 286 286 285 285 285 285 285 286 285 285 285 285 285 285 285 286 286
285 285 285 285 285 285 285 285 285 285 285 285 285 284 284 284 286 286 285 285 285 285 286 285 285 287 286

GFSFLT2_850_thetae_042.txt.gz
Theta_e
306 307 301 300 300 301 296 298 302 304 305 302 294 293 292 290 289 288 288 289 291 292 293 294 295 296 296
304 304 304 302 299 296 300 302 302 301 300 296 290 288 288 288 287 287 288 289 290 291 291 292 293 293 294
304 303 302 300 300 300 299 300 299 297 292 288 288 287 287 287 288 288 289 289 289 290 290 290 290 291 291
302 301 300 299 299 298 297 290 289 289 288 287 287 286 286 288 288 288 288 288 288 289 289 289 289 289 290
300 298 298 298 293 288 288 288 288 288 287 286 286 286 287 287 288 288 288 288 289 289 289 289 290 290 290
297 296 289 288 288 288 288 288 287 286 285 285 285 287 288 288 288 289 288 288 289 289 289 289 289 289 290
287 288 288 288 287 287 287 286 285 284 284 287 287 288 288 289 289 289 289 289 289 289 289 288 289 289 289
286 285 286 286 286 286 285 284 284 284 284 286 287 288 289 289 289 289 289 289 289 289 288 288 288 288 289
286 285 284 284 283 283 283 283 283 285 286 286 288 288 289 290 290 290 289 288 288 287 287 287 287 287 288
285 283 283 283 282 283 283 284 284 284 286 286 287 286 287 290 290 289 289 288 288 288 288 287 286 286 286
282 282 282 283 284 284 285 285 285 285 285 285 287 287 285 286 290 289 289 289 288 288 287 287 287 286 286
282 282 283 284 284 284 285 285 285 285 286 285 286 286 286 286 287 289 289 289 289 288 287 286 286 286 286
282 284 284 285 285 285 285 286 286 286 286 286 286 286 286 285 285 288 287 289 288 287 287 286 286 286 286
284 285 285 285 285 286 286 286 285 286 286 286 286 285 286 284 284 286 288 285 287 287 286 286 286 286 286
285 285 286 286 286 286 286 285 284 285 286 287 286 285 284 284 284 286 287 287 287 287 286 286 286 287 286
285 285 286 286 286 286 285 285 285 285 285 286 285 283 284 285 284 286 286 286 286 286 286 286 286 286 286
285 285 285 285 285 285 285 284 285 285 285 284 282 282 282 282 286 284 284 285 285 285 286 286 286 286 286

GFSFLT2_850_thetae_045.txt.gz
Theta_e
307 307 305 305 306 302 303 302 301 300 298 297 300 300 294 293 293 289 289 289 290 292 293 294 295 296 296
305 304 304 303 304 303 303 302 299 298 298 299 300 297 291 290 289 289 288 289 290 291 292 292 293 294 295
303 303 303 302 302 299 299 298 297 299 299 297 293 289 288 287 287 288 290 290 290 290 291 292 292 292 292
302 301 301 301 298 298 297 296 297 293 289 289 288 287 287 286 287 288 288 288 288 289 289 290 290 290 291
300 299 298 297 297 296 295 290 289 288 288 287 286 285 285 286 287 287 288 288 288 289 289 290 290 290 291
297 296 295 295 291 288 288 288 288 287 286 285 284 286 287 288 288 288 289 288 289 289 289 289 290 290 290
293 291 288 288 288 287 287 287 287 286 284 284 286 288 288 289 289 288 288 288 288 289 289 289 289 289 290
286 286 286 286 286 286 285 285 284 284 283 285 287 288 288 288 289 289 289 288 288 288 288 288 288 288 288
286 286 285 285 285 284 283 283 283 284 285 285 287 288 289 290 289 289 289 288 288 288 288 288 288 288 287
286 285 283 282 283 282 283 283 284 284 286 286 286 286 288 289 289 289 289 289 289 289 289 288 288 287 287
282 282 282 282 283 284 284 284 285 285 285 284 285 285 285 287 290 290 290 289 289 289 289 288 287 286 287
282 282 282 284 284 284 284 285 285 285 285 285 285 285 285 285 287 289 290 290 290 290 289 288 288 286 286
282 283 284 285 285 285 286 286 286 286 286 285 285 286 285 285 286 288 288 290 289 289 289 288 288 287 287
284 284 285 285 285 286 286 286 287 288 286 286 285 285 285 285 284 286 287 286 289 288 287 288 288 287 287
284 285 285 286 286 286 286 287 287 287 287 287 286 284 283 283 283 284 286 287 287 287 286 287 288 288 287
285 285 285 285 286 286 286 286 286 286 286 286 285 284 284 285 285 286 285 286 286 285 285 284 286 287 287
285 285 285 285 285 285 285 285 285 285 285 285 284 283 282 282 285 285 284 285 284 284 285 285 285 286 286

GFSFLT2_850_thetae_048.txt.gz
Theta_e
309 310 307 306 305 305 303 302 303 300 299 300 299 299 298 297 298 297 296 294 293 293 294 294 295 296 297
307 306 304 303 303 302 302 300 300 300 299 299 298 297 296 297 296 293 292 290 290 290 292 293 293 294 295
303 302 301 300 299 300 300 298 298 297 297 296 297 297 296 292 290 289 289 290 291 291 291 292 293 293 293
300 300 300 300 298 299 297 297 296 295 296 295 291 290 289 288 287 286 287 288 288 289 289 290 290 291 291
299 298 298 298 297 296 295 295 295 293 289 289 288 287 286 286 286 286 286 287 288 288 288 290 291 291 292
297 296 296 295 295 294 294 291 288 288 287 287 286 285 285 286 287 287 287 288 288 289 289 289 290 290 291
295 294 293 290 288 288 288 287 287 287 286 285 284 285 287 287 288 288 288 288 288 288 289 289 289 289 290
286 286 286 286 286 286 286 285 285 285 284 283 285 287 288 288 288 288 288 288 289 289 289 289 288 288 288
286 286 286 285 285 284 284 284 283 283 284 285 287 288 288 289 289 289 289 288 288 288 288 288 289 289 289
285 285 285 283 282 282 283 282 283 285 286 286 286 287 288 288 289 288 288 288 288 288 288 289 289 289 288
282 282 282 282 282 282 283 284 284 284 284 284 285 285 286 287 288 288 288 289 289 289 289 289 288 288 288
281 281 281 282 283 283 284 284 284 284 284 284 284 284 284 286 287 289 289 289 289 289 289 289 288 288 288
281 282 283 284 284 284 285 285 285 286 285 285 285 284 282 282 285 288 287 289 289 289 289 288 289 288 288
283 284 284 284 285 285 286 286 286 286 286 285 285 283 282 282 282 286 287 286 288 288 288 288 288 288 288
283 284 285 285 285 285 286 286 286 287 287 286 285 284 284 284 284 286 287 288 288 288 287 287 288 288 288
284 284 285 285 285 285 285 285 286 286 286 286 285 285 285 286 286 286 286 286 287 286 285 285 286 288 287
284 284 284 284 284 284 284 284 285 285 286 286 285 284 284 284 286 285 285 285 284 284 285 284 285 287 286

GFSFLT2_850_thetae_051.txt.gz
Theta_e
309 309 309 308 306 304 300 300 300 300 299 300 300 300 300 299 298 298 298 298 299 297 295 296 296 297 297
307 307 306 305 304 300 299 299 298 299 299 299 298 299 298 297 296 297 297 296 295 295 293 293 294 295 295
304 303 302 302 301 300 299 299 298 298 298 297 297 298 298 297 295 294 294 294 291 291 292 292 292 293 294
301 300 300 300 300 299 297 297 297 297 297 297 297 297 297 294 292 291 289 288 288 288 289 290 290 290 291
299 299 298 299 298 297 296 296 296 295 295 296 294 291 289 288 287 287 286 286 286 287 287 288 289 291 291
298 297 297 296 295 295 294 294 292 291 289 288 288 287 287 286 286 286 286 286 286 287 288 290 291 291 291
295 294 293 291 290 288 288 287 287 287 286 286 286 285 285 285 285 286 287 287 288 288 288 289 290 290 290
286 286 286 286 286 286 286 285 285 285 284 284 285 285 286 287 287 288 288 288 288 288 288 289 289 289 289
286 286 286 286 285 285 284 283 283 283 283 283 285 286 287 288 288 288 288 288 288 288 288 288 288 288 289
284 284 284 283 283 282 282 282 282 284 285 285 285 285 287 287 287 287 288 288 287 288 288 288 288 289 289
282 282 282 282 282 282 282 283 284 284 284 284 284 284 284 286 288 287 287 287 288 288 288 288 289 289 289
282 282 282 282 282 283 284 284 284 285 285 284 285 285 284 285 286 288 288 288 288 288 288 288 289 289 288
282 282 283 284 284 285 285 285 285 286 286 286 285 285 283 284 286 287 287 288 288 289 288 288 288 288 288
282 283 284 284 285 285 286 286 286 286 285 285 285 285 285 285 284 288 288 286 288 288 288 288 289 289 288
282 283 285 285 285 285 285 285 286 286 287 286 285 284 284 284 284 286 287 288 288 287 286 286 287 288 288
282 284 285 285 285 285 285 285 284 285 285 285 284 284 285 286 285 286 286 286 287 286 286 286 286 287 287
282 282 283 284 284 284 284 283 283 284 284 284 284 284 284 284 285 285 285 286 285 285 285 285 285 286 286

GFSFLT2_850_thetae_054.txt.gz
Theta_e
309 308 308 307 307 307 306 304 303 302 304 303 301 300 301 300 299 299 300 299 299 299 299 299 299 299 298
307 307 306 306 305 304 302 301 300 301 300 299 299 299 298 298 298 297 298 298 298 297 297 297 296 295 296
303 304 304 303 303 302 301 299 298 298 298 298 298 298 297 297 296 296 296 296 296 295 296 294 292 293 294
302 302 302 301 301 300 299 298 298 298 298 298 297 296 296 296 296 296 296 296 294 292 289 289 289 290 291
299 299 299 299 298 298 297 297 296 296 296 295 295 296 295 294 292 290 289 288 287 287 286 288 287 288 289
297 297 296 295 295 294 294 294 293 292 292 291 290 289 288 287 287 287 286 286 285 286 285 285 287 290 291
288 288 289 288 288 287 287 286 286 286 286 286 286 286 285 285 285 285 285 285 286 287 288 289 290 291 291
286 286 286 286 286 286 285 285 284 284 283 284 284 284 285 286 286 287 287 287 287 288 288 289 289 290 290
284 285 285 285 285 284 284 283 283 283 283 284 285 286 287 287 288 288 288 288 288 288 288 288 288 289 289
283 283 283 283 282 282 282 282 282 284 285 285 285 286 287 287 287 287 288 288 288 288 288 288 288 288 289
283 282 282 282 282 282 282 283 284 284 284 284 285 285 285 286 288 288 287 287 287 288 288 288 288 288 288
282 282 282 282 283 283 284 284 285 285 284 284 284 285 285 285 287 288 288 287 287 287 288 287 287 288 288
282 282 283 284 285 285 285 285 285 286 286 285 285 285 285 285 286 288 288 289 289 288 288 287 287 287 287
282 283 283 284 285 286 286 286 286 286 285 284 285 285 286 286 286 287 287 286 288 287 287 288 288 288 288
282 282 283 285 286 286 286 286 286 286 286 285 283 284 284 285 285 286 287 287 287 287 286 286 287 287 288
281 282 282 283 284 284 284 285 285 285 285 284 283 283 284 286 286 286 286 286 287 286 286 285 286 287 287
281 281 281 282 282 282 282 282 283 283 284 283 283 283 284 284 286 285 285 286 286 286 285 285 286 286 286

GFSFLT2_850_thetae_057.txt.gz
Theta_e
308 308 307 307 306 305 305 306 305 305 304 305 306 306 305 304 304 301 301 301 301 300 300 300 301 301 301
306 306 305 305 305 305 305 305 304 302 302 304 304 303 303 302 300 300 300 300 299 299 299 299 299 299 299
305 304 303 303 302 303 304 303 303 301 300 301 300 300 300 299 298 298 297 297 297 297 297 297 297 297 295
302 302 301 300 301 301 302 301 301 300 299 299 299 299 298 298 297 297 297 296 296 296 296 296 295 291 292
298 298 298 299 299 298 298 297 297 297 297 297 297 296 296 296 296 296 295 295 295 292 290 288 287 288 290
297 296 296 296 295 294 293 291 290 289 289 289 289 289 289 289 289 288 288 287 287 287 286 286 286 287 288
287 287 287 287 287 286 286 286 286 286 285 286 285 285 285 285 285 285 285 285 285 285 285 286 287 289 291
286 286 286 286 286 285 285 285 284 284 284 284 284 285 286 286 286 287 287 287 287 287 288 289 290 290 290
285 284 284 284 284 284 284 283 283 283 284 285 286 287 287 287 287 288 288 288 287 287 288 288 289 289 289
284 284 284 283 283 283 283 283 283 284 285 285 286 286 287 287 287 288 287 288 288 288 288 288 288 288 288
284 283 283 283 283 283 283 284 284 284 285 285 285 285 285 286 288 288 288 287 287 287 288 288 288 288 288
283 283 283 283 284 285 285 285 285 285 285 285 285 285 285 286 288 288 288 288 288 288 287 287 287 288 288
283 283 283 284 285 285 285 286 286 286 286 286 286 286 286 286 287 287 288 289 288 289 288 288 288 287 287
283 283 283 284 285 285 286 286 286 286 286 285 285 285 285 286 286 287 287 287 288 287 287 288 288 288 288
282 283 283 283 283 284 285 285 286 286 286 284 283 284 285 284 285 286 287 287 287 287 287 287 288 288 288
282 282 282 282 282 283 283 283 284 284 284 284 283 283 283 285 286 287 287 287 286 286 286 286 287 287 287
282 282 282 282 282 282 282 282 283 283 284 283 283 282 283 284 286 286 286 286 286 286 286 286 286 287 286

GFSFLT2_850_thetae_060.txt.gz
Theta_e
309 308 307 307 306 306 305 305 305 305 305 305 306 307 308 306 307 306 306 305 305 305 304 303 303 303 303
306 306 306 306 305 304 304 304 304 304 303 303 305 305 305 305 305 305 303 303 301 301 301 302 301 301 301
304 304 304 303 303 303 303 303 304 303 303 302 303 303 303 303 303 303 302 300 300 300 299 300 299 299 299
302 302 301 301 301 301 301 301 301 301 301 301 301 300 300 300 300 300 299 298 298 297 297 297 297 297 297
298 298 298 298 298 298 297 297 297 297 298 298 298 299 299 298 298 298 298 297 297 297 296 296 296 295 293
296 295 294 293 291 290 288 288 289 289 288 287 288 288 288 288 289 289 290 290 291 291 290 289 288 287 287
287 287 287 287 287 287 287 286 286 286 286 286 286 285 285 286 286 286 286 286 286 286 286 285 285 285 287
286 286 286 286 286 286 285 285 285 285 284 285 285 286 287 287 288 287 287 287 287 286 286 287 288 290 290
285 285 285 284 284 284 284 284 284 284 285 286 286 287 288 288 288 288 288 288 288 288 288 289 289 289 289
284 284 284 284 284 283 283 283 284 285 286 286 287 287 288 287 288 288 288 288 288 288 288 288 288 288 288
284 284 284 284 284 284 284 285 285 285 286 286 286 286 286 287 288 288 288 288 288 288 288 288 288 288 288
284 284 284 284 284 285 285 286 286 286 286 286 286 286 286 287 287 288 288 288 288 288 288 289 288 287 287
283 283 284 284 285 285 286 286 286 286 286 286 286 286 286 286 287 287 287 288 288 288 288 288 288 288 288
283 283 283 284 284 285 286 286 286 286 286 286 286 286 286 286 286 287 287 286 287 287 287 288 288 288 288
283 283 283 283 283 284 284 284 285 285 284 284 284 284 284 285 285 286 286 286 287 287 286 287 288 288 288
283 283 283 283 283 283 283 283 283 283 283 283 282 282 283 285 286 287 287 287 286 286 286 286 287 288 287
283 283 283 283 282 282 282 282 282 283 283 282 282 282 282 283 286 286 286 286 286 285 285 286 286 287 287

GFSFLT2_850_thetae_063.txt.gz
Theta_e
310 310 310 309 307 306 306 306 305 305 305 304 305 305 306 307 308 308 309 309 309 309 308 308 306 305 304
307 307 306 306 306 305 305 305 304 304 303 303 303 304 306 306 306 306 307 307 306 305 305 305 304 304 302
305 305 304 305 304 304 304 303 303 303 303 303 302 303 303 304 304 304 304 303 303 303 302 301 301 300 300
303 302 302 302 302 302 301 301 301 301 300 301 301 301 301 301 302 301 301 301 301 300 300 299 299 300 299
299 298 298 298 298 298 297 296 294 293 295 297 298 298 298 298 298 299 299 299 299 299 298 297 298 297 297
295 295 294 293 291 290 289 288 289 289 289 288 288 288 288 288 289 288 289 290 292 294 295 295 295 294 293
288 289 289 288 287 287 287 287 287 287 286 286 287 287 287 287 287 287 287 287 287 287 287 287 287 287 287
287 288 287 287 287 286 286 286 286 286 286 286 286 287 288 288 289 289 288 288 288 288 287 287 287 286 288
287 287 286 286 285 285 285 285 285 286 286 287 287 288 288 289 289 289 289 289 289 289 289 289 289 288 288
286 286 286 286 285 285 284 284 284 286 288 287 287 288 288 289 289 289 289 289 289 289 288 288 288 289 289
285 285 285 285 285 285 285 285 286 286 287 287 287 287 287 288 289 289 289 289 289 289 289 289 288 288 288
285 284 284 285 285 285 286 286 286 287 287 287 287 287 287 288 288 288 288 288 288 289 289 289 289 289 289
285 284 284 285 285 285 286 287 287 287 287 287 287 287 287 287 288 288 287 288 287 288 288 288 288 289 289
284 284 284 284 284 285 285 286 286 286 287 286 286 286 286 286 286 287 287 286 287 287 286 287 288 288 288
284 284 284 283 284 284 284 284 284 284 284 285 285 285 285 285 285 286 286 286 286 287 287 287 288 288 288
284 284 283 283 283 283 283 283 284 284 283 283 282 282 283 285 285 286 286 286 287 286 286 286 287 288 287
284 284 283 283 283 283 283 283 283 283 283 282 282 282 281 282 285 285 286 286 286 286 285 285 285 286 286

GFSFLT2_850_thetae_066.txt.gz
Theta_e
313 311 310 308 308 307 306 306 305 304 304 303 303 304 304 305 306 307 307 309 309 309 309 309 309 308 308
307 306 307 306 306 305 305 304 304 304 303 303 303 302 303 304 306 307 307 307 308 307 306 305 304 303 303
306 305 305 305 304 304 303 303 303 303 303 303 302 301 302 303 303 304 304 304 305 304 303 303 302 301 301
304 302 302 303 303 303 302 302 301 300 299 300 300 300 300 301 301 302 302 302 302 301 301 301 301 300 300
302 300 298 297 297 297 297 296 294 292 291 291 292 294 295 297 298 299 299 299 299 299 299 299 299 299 299
295 293 293 293 292 290 290 289 289 289 289 288 288 288 288 288 288 288 288 288 288 289 290 292 293 294 295
289 290 290 290 289 288 288 288 288 287 288 287 287 287 287 287 288 288 288 288 287 287 287 287 287 287 287
288 288 288 288 288 287 287 287 287 287 287 287 287 288 289 289 289 289 289 289 289 289 289 288 288 287 287
287 287 287 286 286 286 286 286 286 287 287 287 288 289 289 289 289 289 289 289 290 290 289 289 289 289 289
286 286 286 286 286 286 286 286 286 286 288 288 288 288 289 289 289 289 289 289 290 289 289 289 289 289 289
286 286 286 286 286 286 286 286 287 287 287 287 287 288 288 288 289 288 289 289 289 289 289 289 289 289 290
286 286 285 285 285 285 285 286 287 287 287 287 287 287 287 288 288 288 288 288 288 289 289 289 289 289 289
286 285 285 285 285 285 285 286 286 287 287 287 287 287 287 287 287 288 288 288 287 288 287 288 289 288 289
285 285 285 285 284 285 285 286 286 286 286 286 286 286 286 286 286 287 287 286 287 286 286 288 288 288 288
285 285 284 284 285 285 285 285 285 285 285 285 285 285 285 285 285 286 286 286 286 287 287 287 288 288 288
285 285 284 284 285 284 284 284 284 284 284 284 283 283 283 285 285 286 286 286 286 286 286 285 286 287 286
285 285 284 285 284 284 284 284 284 284 284 283 282 282 282 283 286 285 286 286 286 286 285 285 285 286 286

GFSFLT2_850_thetae_069.txt.gz
Theta_e
314 313 312 311 308 306 307 306 305 304 304 303 303 303 303 304 305 305 306 306 307 309 308 309 309 311 312
312 310 308 306 305 305 305 304 304 304 303 303 303 302 302 303 304 305 306 306 308 308 308 308 308 307 306
308 306 305 304 304 304 304 302 302 302 302 302 302 302 302 302 303 303 303 303 303 304 305 304 304 303 303
306 304 303 302 302 302 302 301 301 300 299 299 299 299 300 301 301 302 301 301 301 302 302 302 302 302 302
304 302 300 299 296 297 297 297 295 293 291 290 290 290 291 292 295 298 299 299 299 300 300 300 300 301 301
299 296 293 293 293 291 290 290 288 289 289 289 289 288 288 288 288 288 288 288 288 288 288 288 289 290 291
291 291 291 291 290 289 289 288 288 288 288 288 288 288 287 288 288 288 289 289 288 288 288 287 287 287 287
289 289 289 289 288 288 288 287 287 287 287 287 287 288 288 289 289 289 289 289 289 290 290 289 289 289 288
288 288 288 287 287 287 287 286 286 287 287 288 288 289 289 289 289 289 289 289 290 290 290 289 289 289 289
288 287 287 287 287 287 286 285 285 286 288 288 288 289 289 289 289 289 289 289 289 289 289 290 290 290 290
287 287 287 287 286 286 286 286 286 287 287 287 288 288 288 288 288 288 289 289 289 289 289 289 289 289 290
286 286 286 287 286 285 285 286 287 287 287 287 287 288 288 288 288 288 288 288 288 288 288 288 289 289 289
286 286 286 286 286 285 285 286 286 287 287 287 287 287 287 288 288 288 288 288 287 288 287 288 288 289 289
286 285 286 286 285 285 285 285 285 285 285 285 285 285 286 286 287 287 287 286 286 286 286 287 287 288 288
286 285 285 285 285 285 285 285 285 285 284 284 284 284 285 285 286 286 286 286 286 286 286 287 288 288 288
285 285 285 285 284 284 284 284 285 284 284 283 283 284 284 286 285 286 286 286 286 286 286 286 287 287 286
285 285 285 284 284 284 284 284 284 284 284 283 283 283 283 285 286 286 286 286 286 285 285 284 285 286 285

GFSFLT2_850_thetae_072.txt.gz
Theta_e
315 313 312 312 311 309 309 307 306 305 304 303 303 302 303 304 304 305 306 306 307 309 311 312 313 312 310
313 312 311 310 308 306 305 305 305 304 303 303 302 302 302 302 303 304 305 305 306 308 307 307 307 307 308
311 310 308 306 304 304 304 304 303 302 302 302 301 301 301 301 302 302 303 304 304 304 305 306 306 307 306
307 306 305 304 303 303 302 302 301 300 299 299 298 298 299 300 300 302 302 301 301 301 301 303 303 303 303
305 304 302 302 300 300 299 299 297 296 293 291 290 290 290 291 294 297 299 300 300 300 301 301 301 301 301
302 302 299 295 294 293 292 291 289 289 289 289 289 289 288 288 288 288 288 289 289 290 291 292 293 294 295
292 293 292 292 292 291 290 289 288 288 288 288 288 288 288 288 288 288 289 289 289 288 288 288 288 288 288
289 290 290 290 289 289 288 288 288 287 288 288 287 287 288 289 289 289 289 289 289 290 290 290 290 290 289
288 288 288 287 287 287 287 287 286 287 287 288 288 288 289 289 289 289 290 289 290 290 290 290 290 290 290
288 288 287 287 287 287 286 286 286 286 287 288 289 289 289 289 289 289 289 289 289 289 290 290 290 290 290
287 287 287 286 286 286 286 286 286 287 288 288 288 288 288 288 289 288 289 289 289 289 289 289 289 290 290
287 287 286 286 286 285 285 285 286 287 287 287 288 288 288 288 288 288 288 288 288 288 288 288 288 289 289
286 286 286 286 285 285 285 285 285 286 286 287 287 288 287 287 287 288 288 287 287 287 287 288 288 288 288
286 286 286 286 285 285 285 284 285 285 285 285 285 286 286 286 286 287 287 286 286 286 286 287 287 287 287
286 286 286 285 285 285 284 284 284 284 283 283 284 284 285 285 286 287 286 286 286 286 286 287 287 287 287
287 286 286 285 285 285 284 284 284 284 283 283 283 283 284 286 286 287 287 287 286 286 286 286 287 287 287
287 286 285 285 285 285 285 285 284 284 283 283 283 283 284 286 287 287 287 286 286 285 285 284 285 286 286

GFSFLT2_850_thetae_075.txt.gz
Theta_e
314 314 314 313 311 311 311 309 307 306 305 305 304 302 303 304 304 305 306 306 307 310 312 313 314 315 316
312 312 312 311 310 309 308 307 305 304 304 303 303 302 301 302 303 303 304 305 305 306 309 311 311 312 311
309 309 310 309 308 306 305 304 304 303 302 302 301 301 302 301 301 302 302 304 304 305 306 306 306 307 308
305 307 307 306 305 304 303 303 302 301 300 300 300 299 300 300 300 301 301 301 302 302 302 302 303 305 305
304 305 305 304 304 302 301 301 300 299 298 296 293 292 291 292 295 297 299 301 301 301 301 300 300 301 302
302 302 302 302 300 295 294 295 293 291 290 290 290 290 289 289 288 289 289 290 293 297 299 299 300 300 300
299 298 297 295 293 293 292 290 289 289 288 288 288 288 288 288 288 288 288 288 289 288 288 288 288 288 289
290 291 292 292 291 291 290 289 288 288 288 287 288 288 288 288 289 289 289 289 290 290 290 290 290 290 289
289 289 289 289 288 288 288 287 287 287 287 287 288 288 289 289 289 289 289 289 290 290 290 290 290 290 290
288 288 287 287 287 287 287 286 286 286 286 287 288 288 289 289 289 289 289 289 290 290 290 290 290 290 290
288 288 287 287 286 286 286 286 286 286 287 288 288 288 288 288 289 289 289 289 289 289 289 289 290 290 290
287 287 287 286 286 286 286 286 286 286 287 287 287 287 288 288 288 288 289 288 288 289 289 289 289 289 289
287 287 286 286 286 286 286 286 286 286 286 287 287 287 287 288 288 288 288 288 288 288 288 288 288 288 289
287 286 286 286 286 286 286 286 286 286 286 286 286 286 286 286 286 287 287 287 286 287 287 288 288 287 287
286 286 286 286 286 286 286 286 285 285 285 285 285 285 285 285 286 286 286 286 286 286 286 287 287 286 287
286 286 286 285 285 285 285 285 284 284 284 284 284 284 285 286 286 286 287 287 286 286 286 286 287 287 286
287 286 286 286 285 285 285 284 284 284 284 284 284 284 284 286 287 287 287 287 286 286 285 284 285 286 286

GFSFLT2_850_thetae_078.txt.gz
Theta_e
311 313 311 313 312 312 311 311 310 310 307 305 305 304 302 303 304 304 305 306 307 309 311 312 313 315 317
311 311 311 312 310 310 309 309 308 307 305 305 304 303 302 302 303 303 304 304 305 307 309 310 313 314 314
307 308 308 310 310 309 309 308 306 303 303 303 302 302 302 301 301 302 302 303 304 305 306 309 310 310 311
304 304 305 306 307 307 306 304 303 302 302 301 301 300 300 300 300 301 301 300 302 303 304 304 305 306 306
303 302 303 304 304 303 302 302 300 301 300 299 298 296 295 294 296 297 299 300 300 301 301 301 300 301 302
301 300 302 301 301 301 300 297 298 298 297 294 292 290 290 290 289 290 290 291 296 299 300 300 300 300 300
300 299 299 299 299 297 294 293 292 291 289 289 289 289 289 288 288 288 288 289 289 289 289 291 294 295 296
291 293 293 295 293 293 293 291 290 289 288 288 288 288 288 288 288 288 289 289 289 289 289 289 289 288 288
289 289 289 290 290 290 289 288 288 288 288 287 288 288 288 288 289 289 289 289 290 290 290 290 290 290 290
288 288 287 288 287 287 287 287 287 287 287 287 287 288 288 289 289 289 289 290 289 290 290 290 290 290 290
288 288 288 288 287 287 287 287 287 286 287 287 288 288 288 289 289 289 289 289 289 289 289 289 289 290 290
287 287 287 287 287 287 287 287 287 287 286 287 288 288 288 288 288 289 289 289 289 289 289 289 289 289 289
287 286 286 287 286 286 286 286 286 286 287 287 288 288 288 288 288 288 288 288 288 288 288 288 288 288 288
286 286 286 286 286 286 286 286 286 285 286 286 286 287 287 287 287 287 286 287 287 287 287 288 288 288 288
287 287 286 287 287 286 286 286 285 285 285 285 285 285 286 286 287 286 286 286 286 286 287 288 287 287 287
287 287 286 286 286 286 286 285 285 285 284 284 285 285 285 286 287 289 288 287 287 287 287 287 288 287 286
287 287 287 286 286 287 286 285 286 284 284 283 283 283 284 286 288 289 289 288 287 287 286 286 287 287 286

GFSFLT2_850_thetae_081.txt.gz
Theta_e
310 310 310 312 311 311 312 311 310 310 310 310 306 305 304 303 303 305 304 306 307 309 311 313 312 314 316
309 309 310 311 311 311 310 309 308 308 308 307 305 304 303 302 301 303 303 305 304 307 309 310 314 316 317
306 307 307 307 308 309 308 307 307 307 306 303 303 302 302 302 301 301 302 303 303 304 306 309 311 312 313
304 304 304 305 305 306 306 306 306 305 303 301 300 300 300 301 301 301 301 301 301 303 304 306 308 308 309
303 302 303 303 304 305 304 304 303 302 301 300 299 299 298 298 298 298 299 300 300 300 302 303 304 303 304
302 301 301 301 301 302 302 301 300 298 299 299 298 296 293 291 290 290 290 293 297 300 300 301 300 300 300
300 300 299 300 300 300 299 299 295 294 292 290 290 290 289 289 289 288 288 289 289 289 293 298 300 300 300
293 295 297 297 296 296 295 293 292 291 290 289 289 289 288 288 288 288 288 289 289 289 288 288 288 289 290
289 289 290 291 292 292 292 291 290 289 289 288 288 288 288 288 288 289 289 289 289 289 290 290 290 290 290
289 288 288 288 288 288 288 288 288 287 288 287 287 288 289 289 289 289 289 289 289 289 290 290 290 290 290
288 288 288 288 287 287 287 287 287 287 287 287 288 288 289 289 290 290 290 289 289 289 289 289 290 290 290
288 288 287 287 287 287 287 287 287 286 286 287 288 288 289 289 289 289 289 289 289 289 289 289 289 289 289
287 288 287 287 286 286 286 286 286 286 287 287 287 287 288 288 288 288 288 288 288 288 288 289 289 289 289
287 287 287 286 286 286 286 286 286 287 288 287 286 286 287 287 287 287 287 287 288 288 288 288 288 288 288
287 287 287 286 286 286 287 287 287 286 286 286 285 285 285 286 286 287 287 289 287 287 287 288 288 287 287
287 287 287 286 286 286 286 287 287 287 286 285 285 284 285 285 286 288 290 290 288 288 288 289 289 288 287
288 288 287 286 286 286 287 287 287 286 285 284 284 284 284 285 286 288 289 290 289 289 288 288 289 289 287

GFSFLT2_850_thetae_084.txt.gz
Theta_e
310 310 309 309 310 310 311 310 310 310 310 309 309 309 306 305 304 305 305 305 306 308 310 313 314 313 313
309 308 308 308 310 310 310 309 309 308 308 308 308 306 304 304 302 301 303 304 305 306 309 310 312 313 315
307 306 306 306 306 306 307 308 307 306 306 306 306 304 303 303 302 301 302 303 304 304 306 309 313 315 317
305 305 305 305 305 305 305 306 306 305 305 305 303 302 302 301 301 301 301 301 302 303 303 306 309 311 313
304 304 303 303 303 303 304 304 304 304 303 303 301 299 299 299 299 299 299 300 300 301 301 303 305 307 307
303 302 302 302 302 302 302 302 302 302 302 299 299 299 298 296 294 292 291 292 296 299 300 301 302 303 302
301 301 301 301 300 301 301 301 300 300 296 292 293 293 292 290 290 289 289 289 289 290 294 299 300 300 300
296 298 299 298 298 298 298 298 297 295 293 291 290 289 289 289 288 288 288 288 289 289 289 289 291 296 298
290 290 290 291 293 294 294 294 293 292 290 289 288 288 288 288 288 288 288 289 289 289 289 289 289 288 288
289 289 289 289 290 291 291 290 290 288 288 287 287 288 288 288 288 289 289 289 290 290 290 290 290 290 290
289 289 288 288 288 288 288 287 287 287 287 287 287 288 288 289 289 289 290 290 290 290 290 290 290 290 290
289 288 288 288 288 287 287 287 287 286 286 287 288 288 288 289 288 289 289 289 290 290 290 290 289 289 289
288 288 288 288 287 287 287 287 287 286 287 287 287 287 288 289 288 288 288 288 289 289 289 289 289 289 289
287 287 288 287 287 287 287 287 287 287 287 288 288 288 287 287 287 287 287 287 288 288 288 288 288 288 288
287 287 287 287 287 286 286 287 287 287 288 287 288 287 286 286 286 286 286 287 288 289 290 289 289 288 288
287 288 288 287 287 287 287 287 288 288 288 288 288 287 286 286 286 286 287 288 289 290 290 290 291 291 290
287 288 288 287 287 287 287 287 288 287 287 287 287 286 285 285 286 286 287 288 289 290 290 290 290 291 290

GFSFLT2_850_thetae_087.txt.gz
Theta_e
311 310 309 308 309 309 309 309 309 310 310 310 310 309 309 308 306 305 304 306 305 304 306 309 311 314 314
310 308 308 308 308 308 309 310 309 309 308 308 307 307 307 306 304 303 302 301 303 305 306 309 310 313 314
307 308 307 306 306 306 306 307 307 307 307 306 306 305 306 304 303 302 301 302 303 304 305 308 311 313 315
305 306 305 305 305 305 305 305 305 305 305 304 304 304 304 302 301 301 301 301 301 302 303 305 308 310 312
304 304 304 304 304 304 303 304 304 304 303 303 303 302 301 300 300 300 299 300 300 300 301 303 305 307 310
303 303 303 303 303 302 302 302 302 303 302 302 302 300 299 299 298 296 294 293 293 297 299 300 302 303 305
301 301 302 302 301 301 301 301 301 301 300 299 296 296 297 295 292 290 290 290 290 290 291 297 300 301 302
298 299 299 300 299 299 299 298 299 298 298 296 293 290 290 289 289 288 289 289 288 289 289 289 292 297 300
292 291 291 293 294 295 295 296 296 294 293 292 290 289 288 288 288 288 288 288 289 290 289 289 289 289 289
291 290 289 290 290 291 293 293 293 292 290 289 289 288 288 288 288 288 289 289 289 290 290 290 290 290 290
290 290 289 290 289 290 290 290 290 289 287 287 287 287 288 289 289 289 289 289 290 289 289 290 290 290 290
289 289 289 289 289 288 288 288 288 288 287 287 287 288 288 289 289 289 290 290 290 290 290 290 290 290 290
289 289 289 289 288 288 287 287 287 287 287 287 287 288 289 289 289 289 290 289 289 289 289 289 289 289 289
288 288 288 288 288 287 287 287 287 287 287 287 288 288 289 289 288 288 288 288 288 288 288 288 288 289 289
288 288 288 287 287 287 287 287 287 287 288 289 289 289 288 288 287 286 287 287 287 288 289 291 292 291 291
288 287 287 287 287 287 287 287 287 287 289 290 290 290 290 288 287 286 286 287 287 289 291 292 293 292 292
288 287 288 288 287 287 287 287 287 288 290 290 289 289 289 288 288 286 287 287 288 288 290 291 291 291 291

GFSFLT2_850_thetae_090.txt.gz
Theta_e
313 312 312 311 309 308 309 309 309 308 309 310 309 309 309 309 308 307 306 304 304 305 304 305 307 308 312
310 311 310 308 307 307 307 307 308 308 308 308 308 308 308 307 306 306 304 303 302 302 304 306 310 312 312
310 308 308 306 306 306 306 306 306 306 306 306 306 307 307 305 305 303 303 302 301 302 304 306 309 312 314
309 308 305 306 306 305 305 305 305 305 304 304 305 305 305 304 303 302 302 301 301 301 302 304 307 310 312
307 306 304 304 304 304 304 304 304 304 304 303 303 303 303 302 301 300 299 299 300 300 300 301 305 306 309
305 303 302 302 303 303 303 303 302 302 303 302 302 301 301 300 299 298 297 295 293 295 298 299 301 304 305
302 302 301 302 303 302 302 301 301 301 301 301 300 299 294 296 297 295 291 290 290 290 290 294 298 300 303
300 301 301 301 301 301 300 299 299 299 299 298 298 296 292 290 289 289 289 289 288 288 289 289 291 296 299
301 300 297 297 297 297 297 297 296 296 297 297 294 292 290 289 289 289 289 288 288 289 289 289 289 289 290
299 295 292 291 291 291 292 294 295 295 293 292 291 290 289 289 288 288 288 289 289 289 290 290 290 290 290
297 294 291 290 290 290 291 292 293 292 289 289 289 289 288 290 289 289 289 289 290 290 290 290 290 290 290
293 290 290 290 290 289 290 290 289 289 288 288 288 288 289 289 290 290 290 290 290 290 290 290 290 290 290
290 290 289 289 289 288 288 288 287 287 287 288 287 288 289 290 290 290 290 291 290 290 290 290 290 290 289
289 289 288 289 289 288 288 287 287 287 287 287 287 288 289 289 290 290 290 289 289 289 289 289 289 289 289
289 288 289 289 288 288 287 287 287 287 287 288 288 289 290 289 290 288 288 287 288 288 288 288 291 292 292
289 288 288 288 288 287 287 287 287 287 287 288 289 289 290 291 291 290 288 287 287 287 288 291 292 293 293
289 289 288 287 287 287 286 286 286 286 287 289 290 290 290 290 291 290 288 287 287 288 289 290 291 292 291

GFSFLT2_850_thetae_093.txt.gz
Theta_e
312 312 313 313 312 311 309 308 308 308 308 307 308 309 308 308 308 308 308 307 306 305 304 303 304 309 310
311 312 312 311 311 309 307 307 306 306 306 307 308 308 308 308 307 307 306 306 304 303 302 303 306 310 312
311 310 310 309 308 307 305 306 306 305 305 305 305 306 306 306 306 304 304 303 302 301 301 303 306 308 312
309 308 309 308 307 305 305 305 305 304 305 304 304 304 304 305 304 303 302 301 301 301 300 302 304 307 310
308 307 307 306 306 304 304 304 304 304 304 304 303 303 303 303 302 301 300 300 300 299 300 300 302 305 307
307 306 305 304 304 302 302 303 303 303 303 302 302 302 302 300 300 300 299 299 297 295 295 298 299 302 304
306 305 305 304 301 302 302 302 302 301 301 301 302 301 300 300 295 297 297 293 291 290 290 291 295 299 301
304 303 303 303 302 302 302 301 300 300 300 300 300 299 299 296 291 290 290 289 289 289 289 290 290 294 298
303 303 303 302 301 300 300 299 298 298 298 297 297 297 295 292 290 289 289 289 288 289 289 289 289 289 291
303 303 302 300 296 295 296 295 296 295 295 295 295 293 290 290 289 288 288 289 289 290 290 290 290 289 289
302 301 298 294 292 291 291 291 292 293 292 292 292 291 290 289 289 288 289 289 290 290 290 290 290 290 290
301 300 296 292 291 290 291 291 291 292 292 290 288 289 288 288 290 290 290 290 290 290 290 290 290 290 290
300 299 294 290 290 290 290 290 290 290 289 289 288 288 288 288 289 290 290 291 290 291 290 290 290 290 290
299 296 290 290 289 289 289 289 288 288 288 287 288 287 288 289 289 289 290 292 291 290 289 289 290 290 289
297 293 289 289 289 289 289 288 288 288 288 287 287 287 288 289 290 290 290 289 288 288 288 288 288 289 291
296 293 289 289 289 288 288 288 288 287 287 287 287 287 288 290 291 292 292 290 287 287 287 288 289 292 293
296 294 289 288 288 288 288 288 287 286 286 286 287 289 289 291 292 292 291 289 287 287 287 287 289 291 292

GFSFLT2_850_thetae_096.txt.gz
Theta_e
316 314 313 313 313 313 312 311 309 308 308 308 309 307 308 309 308 308 308 308 307 306 305 304 303 304 308
318 313 312 312 313 312 311 310 307 307 306 306 307 307 307 307 307 308 308 306 305 305 304 303 302 306 309
314 312 312 312 312 311 309 308 306 306 306 305 305 304 305 305 306 306 306 305 305 304 302 301 302 305 308
312 311 311 311 311 308 307 307 305 305 305 305 304 304 304 304 304 304 304 303 303 302 301 300 300 303 305
312 311 310 310 309 308 306 305 304 304 304 304 304 303 303 303 303 302 301 301 301 300 299 299 299 301 305
311 311 310 309 308 306 305 304 303 303 303 303 303 303 303 302 302 300 300 300 300 299 296 294 297 299 304
311 311 309 307 306 304 304 303 302 302 302 302 302 302 301 301 300 300 296 298 297 293 291 291 291 295 299
310 308 307 305 304 304 302 301 302 302 302 300 300 300 300 300 299 298 291 290 290 290 289 290 290 291 295
307 306 304 303 302 302 302 301 301 301 300 299 299 298 299 298 297 292 290 289 289 289 289 289 289 289 290
305 304 302 302 301 302 301 301 300 299 298 297 297 296 296 295 292 290 289 289 289 289 290 290 289 289 289
302 302 301 301 302 300 298 297 297 295 294 295 295 295 293 289 289 289 289 289 289 289 290 290 290 290 290
301 302 302 302 300 296 293 293 292 292 293 292 292 291 291 290 289 289 289 289 290 290 290 290 290 290 290
302 302 302 299 295 292 291 291 291 291 292 293 291 288 288 288 288 290 290 290 291 291 291 290 290 290 290
301 301 299 297 293 291 290 290 291 291 291 291 291 289 288 287 288 289 290 292 294 293 290 290 290 290 290
299 299 298 296 291 290 289 289 289 289 289 289 288 288 287 288 288 289 289 292 291 290 289 289 289 289 289
298 298 297 297 291 289 288 289 288 288 287 287 287 287 287 288 289 289 291 292 290 289 288 288 288 288 289
298 298 296 296 290 289 288 288 288 287 286 286 287 286 286 288 290 292 293 292 290 289 287 287 287 288 291

GFSFLT2_850_thetae_102.txt.gz
Theta_e
323 324 322 320 320 319 317 314 313 312 311 310 310 309 308 308 309 308 307 308 307 307 307 307 306 306 304
321 320 319 318 318 317 315 314 313 313 312 311 311 309 307 308 308 307 306 306 306 306 306 306 305 304 301
320 319 319 318 317 317 315 314 313 312 312 311 309 307 307 307 307 306 305 305 305 305 305 305 304 303 300
321 320 320 319 317 316 314 313 313 312 311 309 308 307 306 305 305 304 303 303 303 303 303 303 303 301 299
322 321 320 319 319 317 313 313 312 311 311 308 307 306 305 305 304 304 303 303 302 302 301 302 301 299 298
320 321 320 318 318 317 313 312 309 310 310 307 306 305 304 303 303 303 303 302 301 300 299 301 299 296 296
320 320 320 320 319 319 315 312 311 310 307 305 304 304 303 303 303 302 302 301 300 300 296 298 295 293 292
316 317 318 319 319 319 314 311 309 308 306 305 304 303 303 303 302 301 301 300 300 297 292 291 291 291 291
317 314 314 314 313 313 311 308 310 309 308 305 303 302 302 302 301 300 300 299 299 293 290 290 290 291 291
313 312 312 311 312 311 311 310 311 308 308 304 303 302 301 301 300 299 299 298 296 291 289 290 290 290 290
310 311 310 310 311 309 312 310 310 307 304 303 302 301 300 295 298 298 297 296 292 289 289 290 290 290 290
306 307 308 309 309 308 309 305 304 302 302 303 301 301 300 297 291 296 296 293 290 289 289 290 290 291 291
304 305 306 307 307 306 305 303 301 301 301 300 300 295 296 297 295 292 291 291 289 289 289 290 290 291 291
303 302 303 303 303 303 302 301 300 299 299 298 298 295 294 294 295 293 290 289 289 289 290 290 290 291 291
300 301 300 301 300 300 300 300 299 299 297 297 296 294 292 289 289 290 289 289 290 290 290 290 291 292 292
299 299 299 299 299 299 300 299 299 297 295 295 294 293 293 291 288 288 288 289 291 290 291 292 292 291 290
297 297 298 298 298 297 297 296 296 293 293 293 292 292 292 292 289 287 287 289 290 291 291 290 290 289 289

GFSFLT2_850_thetae_105.txt.gz
Theta_e
323 322 323 324 324 323 321 321 318 319 314 311 311 311 310 309 309 309 308 308 307 308 307 307 307 307 306
322 323 323 323 322 321 318 317 318 314 313 313 312 311 310 310 309 308 309 308 307 306 306 306 307 306 305
323 322 321 320 319 317 316 317 316 314 313 313 311 310 310 310 307 307 308 307 305 305 305 305 305 305 304
322 321 320 319 317 315 316 316 315 314 314 313 312 311 310 308 306 307 307 305 304 304 304 304 303 303 303
321 320 320 319 318 317 317 316 315 315 314 314 312 311 309 308 306 305 305 304 303 303 303 302 302 302 301
321 320 320 320 319 318 317 314 311 314 313 313 311 310 308 306 305 305 304 304 303 303 302 301 301 301 298
317 318 320 319 320 319 319 317 317 317 315 312 310 308 307 305 304 303 303 303 303 302 301 299 299 299 294
313 315 316 317 318 319 319 316 314 312 312 311 310 308 305 304 303 303 303 302 302 301 301 295 295 292 292
310 314 313 316 316 316 314 312 310 310 310 310 309 307 304 303 303 302 302 301 301 300 300 291 291 290 290
308 310 313 313 313 314 314 312 308 308 309 309 309 307 302 302 302 301 301 301 300 300 296 290 290 290 291
306 308 310 311 311 312 312 312 312 311 311 310 310 305 303 301 301 300 300 300 299 299 293 289 289 289 290
303 306 306 308 309 311 311 311 311 311 311 312 310 307 304 302 299 300 300 299 298 296 290 289 290 290 290
300 302 305 306 308 309 310 308 310 309 309 307 306 304 303 302 302 297 298 297 297 293 289 289 290 290 290
299 300 301 304 304 306 305 308 305 304 303 302 301 301 300 300 300 295 294 296 295 291 289 289 290 290 290
297 298 299 301 301 301 303 302 303 302 301 300 299 299 297 295 296 297 294 292 291 290 289 290 290 290 290
295 296 297 299 299 300 300 300 300 300 299 299 298 297 295 293 293 295 293 291 289 289 289 289 290 291 291
294 295 296 296 297 298 298 299 298 298 298 299 297 296 294 291 289 288 290 289 289 289 289 289 290 291 292

GFSFLT2_850_thetae_108.txt.gz
Theta_e
322 323 323 322 322 321 322 322 322 323 323 323 318 314 316 316 318 318 313 312 312 309 308 309 308 307 307
323 323 321 321 320 322 322 323 323 323 322 319 317 316 315 315 314 311 310 310 309 308 307 307 306 306 306
321 321 321 321 320 321 321 321 321 320 319 316 316 314 314 313 311 311 310 309 309 309 307 306 306 305 306
319 321 320 321 320 321 319 318 315 316 315 315 313 312 312 312 311 310 310 307 307 308 306 305 304 304 304
319 320 321 319 320 320 319 316 314 315 314 314 314 313 313 311 311 310 310 307 307 307 304 303 303 303 302
314 316 317 318 319 320 318 314 313 314 314 314 313 313 313 312 311 311 308 306 306 305 304 304 303 302 301
310 312 312 316 315 319 319 319 317 316 315 314 315 314 313 312 311 310 308 306 305 304 304 303 302 301 300
305 307 310 312 313 315 315 319 317 316 314 313 314 314 314 313 311 310 307 305 304 304 303 302 301 299 298
298 303 307 309 311 313 314 312 310 313 315 314 314 312 311 310 311 310 305 305 303 303 302 301 301 295 294
297 297 301 306 308 310 311 313 311 309 312 312 312 312 307 308 310 306 303 303 302 303 301 300 299 291 291
293 296 298 301 305 309 310 310 311 312 314 312 311 310 309 308 308 307 302 302 301 301 300 300 297 290 290
291 294 296 298 302 304 308 309 309 311 313 312 311 310 309 307 306 306 302 301 300 300 300 299 294 289 290
291 294 296 297 299 302 303 305 307 307 309 308 310 308 310 310 309 307 302 300 300 299 299 298 291 290 290
291 293 296 297 298 300 300 302 304 304 305 305 306 308 309 310 309 305 302 300 299 299 298 294 289 290 290
290 292 293 295 297 298 298 299 301 302 301 303 301 303 306 309 303 301 301 300 299 299 296 290 289 290 290
288 291 292 293 295 296 296 297 298 300 300 301 301 300 300 299 300 300 298 296 297 296 295 289 289 290 290
288 290 291 293 293 294 295 295 296 299 300 300 299 299 297 295 295 297 298 293 295 291 293 289 289 290 290

GFSFLT2_850_thetae_111.txt.gz
Theta_e
324 322 323 323 323 323 322 323 323 322 322 321 321 322 322 323 322 320 320 319 318 321 317 313 311 308 309
322 323 324 323 323 322 322 322 321 321 320 320 321 322 322 323 320 319 318 317 319 318 314 311 309 308 308
320 323 321 322 322 321 320 320 320 320 320 320 320 321 322 321 319 318 316 319 317 313 310 309 308 307 307
316 317 319 319 320 319 321 320 320 320 320 321 320 320 319 320 318 316 318 315 312 310 310 308 308 307 306
306 311 313 315 316 319 318 320 319 319 319 318 316 318 319 317 316 316 313 312 311 310 309 307 308 306 304
303 306 308 311 313 314 316 317 317 318 318 316 315 317 316 315 316 314 312 312 311 310 308 307 307 304 304
298 301 303 306 308 311 312 314 315 317 317 314 314 315 314 314 313 313 313 312 311 310 307 306 305 304 304
293 296 299 301 305 307 308 310 312 313 315 313 314 314 314 314 313 313 312 311 311 310 307 305 304 304 303
289 291 294 296 298 303 307 307 309 311 312 311 313 313 313 314 314 313 313 311 310 310 307 305 304 304 302
288 288 288 289 290 296 301 303 306 309 310 310 311 312 308 312 312 312 309 308 309 309 307 304 304 303 302
288 287 288 289 289 293 295 300 303 306 308 310 310 310 309 308 309 307 308 308 306 306 305 304 303 303 301
289 289 291 291 291 294 294 295 298 302 306 308 309 310 309 307 309 309 305 306 306 308 305 303 303 302 300
287 287 289 289 291 292 294 296 298 299 303 304 307 308 309 308 309 309 306 304 304 305 303 302 303 301 299
286 287 287 288 289 291 292 294 296 299 301 301 304 306 307 308 308 307 307 304 303 302 303 302 302 299 298
285 285 286 287 289 291 292 293 294 296 299 299 302 302 304 304 304 305 305 303 305 304 301 301 300 298 293
285 285 286 288 289 290 292 292 293 295 296 297 299 300 298 299 300 302 302 303 303 302 301 301 299 297 290
284 285 286 287 288 289 290 291 292 293 293 294 296 299 296 295 296 298 301 302 301 300 299 298 299 296 289

GFSFLT2_850_thetae_114.txt.gz
Theta_e
321 322 325 325 325 325 324 324 322 323 323 322 323 323 322 321 321 321 322 322 323 322 324 323 319 319 317
317 318 318 322 322 323 323 323 323 322 322 323 322 322 320 320 320 320 321 322 322 322 323 321 317 318 314
308 314 314 317 320 321 322 322 323 322 322 322 322 321 321 320 320 322 321 322 323 322 321 318 317 317 311
297 299 304 309 313 315 318 319 318 319 320 321 320 320 320 320 320 320 321 321 322 322 318 317 317 312 309
294 296 299 304 307 309 312 313 316 317 318 319 319 319 320 320 320 320 320 320 321 319 317 316 313 310 309
293 295 296 299 302 304 306 308 311 315 315 317 317 318 318 319 319 319 319 319 318 317 315 312 312 310 309
292 292 292 293 296 299 303 304 304 308 310 311 313 315 316 316 316 318 318 317 316 316 313 312 311 310 308
288 288 289 289 289 293 296 300 303 306 307 308 311 312 314 314 315 316 316 316 315 314 312 312 310 308 307
287 287 287 287 288 288 289 292 296 300 304 306 308 310 312 313 314 315 315 315 314 313 313 312 310 308 306
287 287 287 287 288 288 290 293 295 296 300 304 306 308 310 311 312 314 313 313 313 313 312 312 310 307 305
287 287 287 288 288 291 292 291 292 295 297 300 303 305 308 309 311 311 311 312 311 311 310 310 310 308 305
286 286 286 287 287 287 288 291 290 290 294 297 298 302 305 308 308 310 310 310 308 308 309 308 306 306 304
286 286 285 285 285 286 286 287 289 290 290 292 296 298 301 304 306 308 308 305 305 306 306 307 307 307 305
285 285 285 285 285 285 287 288 290 290 291 291 294 298 300 300 304 306 307 305 305 304 305 305 305 305 305
285 285 285 284 285 285 286 287 288 290 291 292 293 296 299 299 301 303 305 306 306 306 303 303 303 304 302
284 284 284 284 284 285 286 287 288 289 291 292 292 294 296 298 299 300 302 304 304 303 302 300 301 301 301
283 284 283 283 283 284 285 286 288 289 290 290 291 292 293 295 297 298 300 301 301 300 301 300 300 301 300

GFSFLT2_850_thetae_117.txt.gz
Theta_e
310 312 315 319 321 323 324 324 324 324 324 323 323 321 322 324 324 324 323 322 322 322 321 323 323 324 323
305 303 304 310 316 317 321 322 323 324 324 324 322 322 321 324 323 323 322 322 321 321 321 322 322 323 321
296 296 296 299 306 314 317 317 320 319 322 323 323 321 322 322 322 322 321 321 321 321 321 322 322 322 322
292 292 294 296 299 303 312 315 315 317 318 318 320 320 322 322 322 321 321 321 321 320 322 321 322 322 320
291 291 292 293 296 299 302 306 311 312 314 316 317 318 319 320 319 319 320 320 320 320 321 321 322 321 320
290 290 290 290 290 291 293 298 300 303 309 313 313 315 317 317 318 318 319 320 320 320 320 321 321 319 318
288 288 288 288 288 288 289 289 291 296 302 305 308 310 313 315 316 317 317 318 318 319 319 319 317 316 317
288 288 287 287 287 287 288 288 288 289 290 297 301 305 308 311 314 315 316 317 318 318 317 317 317 315 314
288 287 287 287 287 288 288 289 290 290 290 293 295 301 304 307 311 313 313 314 315 315 315 316 315 314 313
288 287 286 286 286 287 287 289 290 291 293 296 297 300 302 301 306 310 311 312 313 314 315 315 314 313 312
288 286 286 286 286 286 286 287 288 289 290 290 292 295 297 299 303 306 310 311 311 311 312 313 313 313 313
287 286 285 285 285 285 285 285 286 286 286 288 289 290 294 296 298 302 304 307 309 309 310 311 311 312 312
285 285 285 285 285 285 285 285 285 286 287 288 289 290 290 292 294 297 301 304 307 308 307 308 309 310 310
285 284 284 284 284 284 284 284 284 285 287 287 288 291 291 290 292 295 298 301 303 306 307 307 306 307 309
284 283 283 283 283 284 283 283 285 286 286 287 287 289 291 291 291 293 296 299 301 303 305 305 304 305 306
283 283 282 282 283 283 282 282 283 284 285 286 288 289 290 291 291 293 295 297 299 301 303 304 303 303 304
282 281 281 282 282 282 282 282 283 284 285 286 288 289 290 290 291 292 294 296 298 299 301 301 303 303 303

GFSFLT2_850_thetae_120.txt.gz
Theta_e
302 305 309 309 310 314 314 318 321 323 323 324 324 325 326 324 323 323 323 323 324 324 323 322 321 322 322
304 304 299 296 304 303 304 313 316 318 320 322 323 324 324 325 323 322 323 324 323 323 324 322 322 322 322
293 295 293 292 294 296 298 302 311 315 316 318 320 322 323 323 324 322 322 322 323 323 323 322 322 322 322
290 290 290 291 291 292 294 296 299 305 312 314 316 317 319 320 321 322 322 321 323 323 322 322 321 321 321
288 288 289 289 289 289 289 290 293 293 299 308 313 314 317 318 319 320 321 321 322 322 322 321 321 321 321
287 287 287 287 287 287 288 288 289 291 292 295 299 311 314 313 315 317 318 319 319 319 319 320 320 321 320
288 288 288 288 287 287 287 287 287 288 288 289 291 293 301 308 311 312 314 317 318 319 319 320 320 320 320
288 288 288 287 286 287 287 288 288 288 289 290 289 290 291 295 299 308 311 315 316 317 318 319 319 318 320
287 288 289 287 286 286 286 287 287 287 288 291 293 294 294 293 293 296 306 311 315 316 317 318 317 317 317
288 288 288 287 286 285 285 285 286 286 287 288 289 289 291 293 296 301 300 305 311 312 313 314 316 315 316
288 287 287 287 286 285 285 285 285 284 285 285 286 286 287 289 290 297 301 305 307 308 309 312 314 315 315
287 286 287 286 285 285 285 285 285 284 285 285 285 287 288 289 290 289 291 298 302 303 306 308 309 311 313
285 286 286 285 284 284 284 284 284 284 284 285 285 286 287 287 288 290 290 289 295 300 302 305 306 308 310
286 286 285 284 284 283 283 283 283 284 284 285 285 286 286 287 288 289 290 291 290 297 300 302 303 305 307
285 284 284 283 283 282 282 282 282 283 284 284 284 285 286 287 288 288 289 290 292 291 296 299 301 303 305
282 282 282 282 281 281 282 282 281 282 282 284 284 285 286 287 288 289 289 289 289 293 292 297 299 301 302
281 280 280 280 281 281 281 281 282 282 282 283 283 284 285 287 288 288 289 290 291 291 294 295 298 300 300

GFSFLT2_850_thetae_123.txt.gz
Theta_e
304 304 305 306 306 307 307 309 310 311 316 318 320 322 323 324 324 324 325 325 324 323 322 323 325 326 325
293 294 296 299 301 304 305 302 303 304 307 316 316 318 320 323 323 325 325 325 324 323 322 323 323 324 324
290 290 290 290 291 292 293 294 294 295 298 303 313 315 317 319 321 323 324 324 324 323 323 323 322 323 323
288 288 288 289 289 289 291 291 292 292 293 295 301 311 314 315 317 319 321 322 323 323 322 322 323 323 323
288 288 288 288 288 288 288 289 290 290 290 291 293 296 307 313 314 314 316 318 321 320 321 322 322 323 322
288 288 288 288 288 287 287 287 288 290 289 290 290 291 292 296 309 312 312 313 316 319 318 321 320 322 323
288 288 288 288 288 287 286 286 286 287 287 288 289 289 290 291 292 297 312 312 314 316 318 319 320 321 321
288 288 287 288 288 287 286 285 286 286 286 287 288 289 290 291 292 293 294 309 312 313 314 316 318 319 319
288 288 288 288 288 287 286 285 285 285 286 288 286 286 287 289 289 292 297 297 301 308 311 314 316 317 318
289 289 288 288 287 287 285 285 285 285 285 284 285 285 286 287 290 295 296 299 298 302 309 314 315 317 318
287 287 287 287 287 286 285 284 284 284 285 284 284 285 284 285 286 288 288 289 296 301 307 311 312 313 314
286 285 285 285 286 286 285 284 284 284 284 284 283 284 284 285 285 287 287 288 289 292 300 304 305 306 309
284 285 285 285 286 285 284 284 284 283 283 284 283 284 284 285 285 286 287 288 288 288 291 298 303 303 306
284 284 285 285 285 284 284 283 283 283 284 283 283 283 283 285 286 285 286 287 288 288 289 292 298 300 302
283 283 283 283 283 282 282 282 281 282 283 283 283 283 284 284 284 285 286 288 289 288 288 289 291 299 299
281 281 281 281 281 281 281 281 281 281 282 282 282 281 282 285 285 287 287 288 289 289 289 289 289 291 297
281 281 281 281 280 280 280 280 280 280 281 282 282 282 282 283 285 286 287 288 288 288 288 290 290 291 292